#timestamp,LO_Frequency,Hit,StdDev 
1572246015.3,286046998.3,N
1572246035.2,286046998.3,N
1572246055.9,286046998.7,N
1572246075.7,286046998.6,N
1572246095.6,286047000.1,N
1572246115.4,286047001.6,N
1572246135.3,286047006.0,Y
1572246155.1,286047005.9,P
1572246156.0,286047005.9,N
1572246175.8,286047003.4,N
1572246195.7,286047002.9,N
1572246215.5,286047004.1,N
1572246235.3,286047002.7,N
1572246255.2,286046999.9,N
1572246275.0,286047000.0,N
1572246275.9,286047000.0,N
1572246295.8,286046999.9,N
1572246315.6,286046998.4,N
1572246335.4,286046999.1,N
1572246355.3,286046996.5,N
1572246375.1,286046998.3,N
1572246395.8,286046998.8,N
1572246415.7,286047000.8,N
1572246435.5,286046999.6,N
1572246455.4,286046998.9,N
1572246475.2,286046998.2,N
1572246495.0,286046998.1,N
1572246495.9,286046998.1,N
1572246515.8,286047000.8,N
1572246535.6,286047000.5,N
1572246555.4,286046999.8,N
1572246575.3,286047002.2,N
1572246595.1,286047002.1,N
1572246615.9,286047003.1,N
1572246635.7,286047003.4,N
1572246655.5,286047004.2,N
1572246675.4,286047002.6,N
1572246695.2,286047002.2,N
1572246715.0,286047002.9,N
1572246715.9,286047002.9,N
1572246735.8,286047007.6,Y
1572246755.6,286047005.3,P
1572246775.5,286047003.5,N
1572246795.3,286047002.5,N
1572246815.1,286047000.6,N
1572246835.9,286047000.8,N
1572246855.7,286046998.4,N
1572246875.6,286047001.1,N
1572246895.4,286046998.3,N
1572246915.2,286046996.5,N
1572246935.1,286046999.1,N
1572246936.0,286046999.1,N
1572246955.8,286046998.4,N
1572246975.6,286047000.4,N
1572246995.5,286047000.1,N
1572247015.3,286047002.7,N
1572247035.2,286047000.2,N
1572247055.9,286047002.3,N
1572247075.7,286047002.3,N
1572247095.6,286047004.4,N
1572247115.4,286047003.5,N
1572247135.2,286047003.6,N
1572247155.1,286047003.6,N
1572247156.0,286047003.6,N
1572247175.8,286047003.4,N
1572247195.7,286047003.5,N
1572247215.5,286047003.5,N
1572247235.3,286047003.4,N
1572247255.2,286047003.3,N
1572247275.0,286047003.6,N
1572247275.9,286047003.6,N
1572247295.7,286047003.4,N
1572247315.6,286047005.9,N
1572247335.4,286047003.3,N
1572247355.3,286047003.1,N
1572247375.1,286047003.8,N
1572247376.0,286047003.8,N
1572247395.8,286047003.2,N
1572247415.7,286047007.1,Y
1572247435.5,286047001.5,P
1572247455.4,286047004.2,P
1572247475.2,286047002.4,N
1572247495.0,286047001.6,N
1572247495.9,286047001.6,N
1572247515.8,286047002.2,N
1572247535.6,286047002.7,Y
1572247555.4,286046997.1,P
1572247575.3,286046999.4,N
1572247595.1,286046998.6,N
1572247615.9,286046998.3,N
1572247635.7,286046999.4,N
1572247655.5,286046999.1,N
1572247675.4,286046999.1,N
1572247695.2,286046999.3,N
1572247715.0,286046998.9,N
1572247715.9,286046998.9,N
1572247735.8,286046999.1,N
1572247755.6,286046999.1,N
1572247775.5,286046999.6,N
1572247795.3,286046997.4,N
1572247815.1,286046999.1,N
1572247835.9,286046999.3,N
1572247855.7,286046999.0,N
1572247875.5,286046999.2,N
1572247895.4,286046997.3,N
1572247915.2,286046997.8,N
1572247935.1,286046997.7,N
1572247936.0,286046997.7,N
1572247955.8,286046995.0,Y
1572247975.6,286046999.2,P
1572247995.5,286046998.2,P
1572248015.3,286046999.0,N
1572248035.2,286046996.8,Y
1572248055.9,286046999.1,P
1572248075.7,286047001.1,P
1572248095.6,286046998.1,N
1572248115.4,286047001.1,N
1572248135.2,286047000.3,N
1572248155.1,286047001.9,N
1572248156.0,286047001.9,N
1572248175.8,286047001.8,N
1572248195.7,286047001.6,N
1572248215.5,286047002.1,N
1572248235.3,286047000.0,N
1572248255.2,286046998.6,N
1572248275.9,286047000.6,N
1572248295.7,286047001.0,N
1572248315.6,286046998.1,N
1572248335.4,286046998.3,N
1572248355.3,286046998.7,N
1572248375.1,286046996.9,N
1572248376.0,286046996.9,N
1572248395.8,286046996.9,N
1572248415.7,286046999.1,N
1572248435.5,286047000.6,N
1572248455.3,286047000.4,N
1572248475.2,286047002.7,N
1572248495.0,286047000.8,N
1572248495.9,286047000.8,N
1572248515.8,286047000.0,N
1572248535.6,286046998.6,N
1572248555.4,286046998.5,N
1572248575.3,286047001.2,N
1572248595.1,286047000.9,N
1572248615.8,286047000.5,N
1572248635.7,286046999.7,N
1572248655.5,286047000.1,N
1572248675.4,286047002.3,N
1572248695.2,286047000.3,N
1572248715.0,286047002.3,N
1572248715.9,286047002.3,N
1572248735.8,286047004.4,N
1572248755.6,286047001.6,N
1572248775.5,286047004.4,N
1572248795.3,286047001.9,N
1572248815.1,286047002.0,N
1572248835.9,286047002.8,N
1572248855.7,286046999.9,N
1572248875.5,286047000.1,N
1572248895.4,286047000.1,N
1572248915.2,286047000.2,N
1572248935.1,286047000.0,N
1572248966.0,286047002.0,E
1572248975.9,286046999.8,N
1572248995.7,286046999.3,P
1572249015.6,286046996.9,P
1572249035.4,286046998.4,N
1572249055.2,286047001.2,N
1572249075.1,286046998.2,N
1572249076.0,286046998.2,N
1572249095.8,286046998.5,N
1572249115.6,286047000.7,N
1572249135.5,286047000.3,N
1572249155.3,286047000.3,N
1572249175.2,286046999.8,N
1572249195.9,286047000.9,N
1572249215.7,286047000.5,N
1572249235.6,286047001.0,N
1572249255.4,286047000.9,N
1572249275.2,286047000.3,N
1572249295.1,286046999.7,N
1572249296.0,286046999.7,N
1572249315.8,286047000.5,N
1572249335.7,286047001.2,N
1572249355.5,286047000.7,N
1572249375.3,286046998.8,N
1572249395.2,286046998.9,N
1572249415.0,286046996.7,N
1572249415.9,286046996.7,N
1572249435.7,286046996.8,N
1572249455.6,286046995.4,Y
1572249475.4,286046998.4,P
1572249495.3,286046996.5,P
1572249515.1,286046998.3,N
1572249535.8,286046998.6,N
1572249555.7,286047001.0,N
1572249575.5,286047000.6,N
1572249595.4,286047000.9,N
